"2016-04-29 00:00:00",1588251,6.131,147.8,6.559,1.243,6.472,100.2038,-0.18,1.101,88.5,0,109.7,13.35,0.57,109.8
"2016-04-29 00:00:30",1588252,5.876,144.6,6.658,1.267,6.623,100.2038,-0.18,1.11,88.5,0,109.6,13.35,0.57,106.6
"2016-04-29 00:01:00",1588253,5.572,140.5,7.26,1.348,5.906,100.2038,-0.18,1.063,88.5,0,109.7,13.35,0.57,102.5
"2016-04-29 00:01:30",1588254,5.471,139.8,7.457,1.337,5.88,100.2038,-0.18,1.004,88.5,0,109.6,13.35,0.57,101.8
"2016-04-29 00:02:00",1588255,4.422,141.4,8.33,1.234,4.673,100.2038,-0.18,1.024,88.5,0,109.6,13.35,0.57,103.4
"2016-04-29 00:02:30",1588256,5.289,144,7.18,1.461,6.224,100.2038,-0.18,1.149,88.7,0,109.7,13.35,0.57,106.0
"2016-04-29 00:03:00",1588257,5.672,144.3,6.826,1.342,6.261,100.2038,-0.18,1.102,88.7,0,109.6,13.35,0.57,106.3
"2016-04-29 00:03:30",1588258,5.601,144.8,6.677,1.324,6.406,100.2038,-0.18,1.089,88.7,0,109.7,13.35,0.57,106.8
"2016-04-29 00:04:00",1588259,5.273,141.2,7.217,1.364,5.868,100.2038,-0.18,1.072,88.7,0,109.6,13.35,0.57,103.2
"2016-04-29 00:04:30",1588260,5.406,142.6,6.672,1.392,5.877,100.203,-0.182,1.016,88.7,0,109.7,13.35,0.57,104.6
"2016-04-29 00:05:00",1588261,4.667,141.5,5.733,1.205,4.584,100.2024,-0.184,0.948,88.7,0,109.7,13.35,0.57,103.5
"2016-04-29 00:05:30",1588262,5.638,144.6,7.24,1.408,5.539,100.2001,-0.189,1.082,88.8,0,109.6,13.35,0.56,106.6
"2016-04-29 00:06:00",1588263,5.905,143.5,7.022,1.334,6.178,100.1964,-0.199,1.088,88.9,0,109.7,13.35,0.55,105.5
"2016-04-29 00:06:30",1588264,5.903,142.5,6.63,1.349,6.828,100.1919,-0.21,1.089,88.9,0,109.7,13.36,0.54,104.5
"2016-04-29 00:07:00",1588265,5.723,140.1,6.977,1.381,6.075,100.1871,-0.223,1.066,88.9,0,109.7,13.35,0.53,102.1
"2016-04-29 00:07:30",1588266,5.36,140.8,7.505,1.349,6.108,100.1809,-0.238,1.037,88.9,0,109.7,13.35,0.51,102.8
"2016-04-29 00:08:00",1588267,5.071,139.3,6.957,1.341,4.977,100.1775,-0.247,0.934,88.9,0,109.7,13.35,0.50,101.3
"2016-04-29 00:08:30",1588268,5.064,138.6,7.03,1.298,5.212,100.1744,-0.255,1.007,89,0,109.7,13.35,0.50,100.6
"2016-04-29 00:09:00",1588269,5.261,142.7,7.09,1.384,6.168,100.1701,-0.266,1.066,89.1,0,109.7,13.35,0.49,104.7
"2016-04-29 00:09:30",1588270,5.104,142.8,6.951,1.39,5.381,100.1698,-0.267,0.979,89,0,109.7,13.36,0.48,104.8
"2016-04-29 00:10:00",1588271,5.38,142,6.914,1.368,6.064,100.1698,-0.267,1.051,89.1,0,109.7,13.36,0.48,104.0
"2016-04-29 00:10:30",1588272,5.478,144.4,6.534,1.257,6.775,100.1698,-0.267,1.057,89.1,0,109.7,13.36,0.48,106.4
"2016-04-29 00:11:00",1588273,5.009,140.7,7.005,1.355,6.645,100.1698,-0.267,1.045,89.2,0,109.7,13.35,0.48,102.7
"2016-04-29 00:11:30",1588274,4.868,140.9,6.702,1.333,5.66,100.1698,-0.267,1.013,89.2,0,109.7,13.35,0.48,102.9
"2016-04-29 00:12:00",1588275,5.002,139.7,7.73,1.367,5.866,100.1698,-0.267,0.995,89.2,0,109.7,13.35,0.48,101.7
"2016-04-29 00:12:30",1588276,4.906,138.7,7.044,1.356,5.521,100.1698,-0.267,0.987,89.2,0,109.6,13.35,0.48,100.7
"2016-04-29 00:13:00",1588277,5.012,141,6.877,1.335,6.047,100.1698,-0.267,1.026,89.3,0,109.7,13.35,0.48,103.0
"2016-04-29 00:13:30",1588278,4.832,140.7,7.285,1.364,5.959,100.1698,-0.267,1.005,89.3,0,109.7,13.35,0.48,102.7
"2016-04-29 00:14:00",1588279,4.885,143,6.838,1.283,6.619,100.1698,-0.267,1.045,89.4,0,109.7,13.35,0.48,105.0
"2016-04-29 00:14:30",1588280,4.259,141,6.931,1.34,5.784,100.1698,-0.267,0.961,89.3,0,109.7,13.35,0.48,103.0
"2016-04-29 00:15:00",1588281,3.563,137.4,5.926,1.172,4.262,100.1698,-0.267,0.941,89.3,0,109.7,13.35,0.48,99.4
"2016-04-29 00:15:30",1588282,4.092,140.9,6.699,1.367,5.219,100.1698,-0.267,0.952,89.4,0,109.7,13.35,0.48,102.9
"2016-04-29 00:16:00",1588283,3.648,140,7.222,1.258,4.772,100.1698,-0.267,0.894,89.3,0,109.6,13.35,0.48,102.0
"2016-04-29 00:16:30",1588284,4.329,142.6,7.076,1.364,6.423,100.1698,-0.267,1.001,89.5,0,109.7,13.35,0.48,104.6
"2016-04-29 00:17:00",1588285,4.554,144,7.067,1.355,6.186,100.1698,-0.267,1.003,89.5,0,109.7,13.35,0.48,106.0
"2016-04-29 00:17:30",1588286,4.383,142.7,6.963,1.373,5.255,100.1698,-0.267,0.916,89.4,0,109.7,13.35,0.48,104.7
"2016-04-29 00:18:00",1588287,3.876,140.1,6.148,1.247,4.886,100.1698,-0.267,0.954,89.5,0,109.7,13.36,0.48,102.1
"2016-04-29 00:18:30",1588288,4.284,143.6,6.771,1.31,5.628,100.1698,-0.267,0.965,89.5,0,109.7,13.36,0.48,105.6
"2016-04-29 00:19:00",1588289,4.741,140.6,6.933,1.377,5.539,100.1698,-0.267,0.945,89.5,0,109.7,13.36,0.48,102.6
"2016-04-29 00:19:30",1588290,5.13,139.6,6.521,1.288,6.487,100.1698,-0.267,1.063,89.7,0,109.7,13.36,0.48,101.6
"2016-04-29 00:20:00",1588291,4.983,138.8,7.107,1.281,6.061,100.1698,-0.267,1.019,89.7,0,109.7,13.36,0.48,100.8
"2016-04-29 00:20:30",1588292,4.266,135.3,6.774,1.334,4.894,100.1698,-0.267,0.917,89.6,0,109.7,13.36,0.48,97.3
"2016-04-29 00:21:00",1588293,4.766,136.5,6.982,1.356,5.698,100.1698,-0.267,0.954,89.7,0,109.7,13.36,0.48,98.5
"2016-04-29 00:21:30",1588294,3.66,133.9,5.832,1.09,4.012,100.1698,-0.267,0.935,89.7,0,109.6,13.36,0.48,95.9
"2016-04-29 00:22:00",1588295,4.801,141.5,6.831,1.371,5.669,100.1698,-0.267,0.965,89.7,0,109.7,13.36,0.48,103.5
"2016-04-29 00:22:30",1588296,4.815,142.4,6.777,1.343,6.018,100.1698,-0.267,1.002,89.8,0,109.6,13.36,0.48,104.4
"2016-04-29 00:23:00",1588297,4.816,144.1,6.799,1.33,5.698,100.1698,-0.267,1.009,89.8,0,109.7,13.36,0.48,106.1
"2016-04-29 00:23:30",1588298,4.598,143,6.987,1.326,5.38,100.1698,-0.267,0.992,89.8,0,109.7,13.36,0.48,105.0
"2016-04-29 00:24:00",1588299,4.676,143.9,7.126,1.346,5.64,100.1681,-0.271,0.923,89.8,0,109.6,13.36,0.48,105.9
"2016-04-29 00:24:30",1588300,4.576,146.1,6.996,1.392,5.389,100.167,-0.274,0.958,89.8,0,109.6,13.36,0.48,108.1
"2016-04-29 00:25:00",1588301,4.696,144.5,6.573,1.386,5.463,100.1662,-0.276,0.953,89.8,0,109.7,13.36,0.48,106.5
"2016-04-29 00:25:30",1588302,5.221,146.8,6.916,1.244,6.35,100.1664,-0.275,0.985,89.9,0,109.6,13.36,0.48,108.8
"2016-04-29 00:26:00",1588303,4.442,143.8,6.76,1.321,4.493,100.1613,-0.288,0.932,89.9,0,109.6,13.36,0.46,105.8
"2016-04-29 00:26:30",1588304,4.275,144.2,6.677,1.297,4.402,100.1563,-0.301,0.961,89.9,0,109.7,13.36,0.45,106.2
"2016-04-29 00:27:00",1588305,4.614,147.2,7.158,1.345,5.14,100.156,-0.302,0.908,89.9,0,109.6,13.35,0.45,109.2
"2016-04-29 00:27:30",1588306,4.587,146.4,7.221,1.358,5.497,100.1531,-0.309,0.935,89.9,0,109.6,13.35,0.44,108.4
"2016-04-29 00:28:00",1588307,5.045,147.1,6.925,1.345,6.042,100.1526,-0.311,0.984,90,0,109.6,13.35,0.44,109.1
"2016-04-29 00:28:30",1588308,4.841,146,7.011,1.344,5.715,100.1531,-0.309,0.968,90,0,109.6,13.35,0.44,108.0
"2016-04-29 00:29:00",1588309,4.843,148,6.53,1.319,6.223,100.1523,-0.311,0.988,90,0,109.7,13.35,0.44,110.0
"2016-04-29 00:29:30",1588310,3.97,142,7.073,1.326,4.327,100.1523,-0.311,0.925,90,0,109.7,13.35,0.44,104.0
"2016-04-29 00:30:00",1588311,4.117,144.3,7.2,1.37,5.223,100.1483,-0.321,0.913,90,0,109.7,13.35,0.43,106.3
"2016-04-29 00:30:30",1588312,4.072,145.9,7.25,1.378,5.898,100.1441,-0.332,0.941,90.1,0,109.6,13.35,0.42,107.9
"2016-04-29 00:31:00",1588313,4.152,146.5,7.081,1.379,5.485,100.1429,-0.335,0.9,90,0,109.7,13.35,0.42,108.5
"2016-04-29 00:31:30",1588314,3.702,146.2,6.865,1.298,4.657,100.1387,-0.346,0.935,90.1,0,109.7,13.35,0.40,108.2
"2016-04-29 00:32:00",1588315,3.68,145.3,6.932,1.271,4.736,100.1381,-0.347,0.897,90.1,0,109.7,13.35,0.40,107.3
"2016-04-29 00:32:30",1588316,4.076,147.7,6.938,1.381,5.569,100.1387,-0.346,0.951,90.2,0,109.7,13.35,0.40,109.7
"2016-04-29 00:33:00",1588317,3.742,145.7,7.63,1.365,5.681,100.1395,-0.344,0.961,90.2,0,109.6,13.35,0.41,107.7
"2016-04-29 00:33:30",1588318,4.34,145.7,7.295,1.354,6.309,100.1387,-0.346,0.908,90.2,0,109.7,13.35,0.40,107.7
"2016-04-29 00:34:00",1588319,3.705,141,6.613,1.285,4.546,100.1384,-0.347,0.876,90.1,0,109.7,13.35,0.40,103.0
"2016-04-29 00:34:30",1588320,4.251,141.5,6.708,1.387,5.868,100.1398,-0.343,0.971,90.3,0,109.7,13.36,0.41,103.5
"2016-04-29 00:35:00",1588321,3.6,136,6.191,1.232,4.264,100.139,-0.345,0.9,90.2,0,109.7,13.36,0.41,98.0
"2016-04-29 00:35:30",1588322,4.633,139.7,6.506,1.321,6.472,100.1384,-0.347,0.961,90.3,0,109.7,13.36,0.40,101.7
"2016-04-29 00:36:00",1588323,3.717,135.9,6.613,1.314,4.954,100.1401,-0.342,0.901,90.3,0,109.7,13.36,0.41,97.9
"2016-04-29 00:36:30",1588324,4.074,137.6,7.039,1.406,5.753,100.1418,-0.338,0.987,90.4,0,109.7,13.36,0.41,99.6
"2016-04-29 00:37:00",1588325,4.081,137.7,7.445,1.337,5.557,100.1413,-0.339,0.885,90.3,0,109.7,13.36,0.41,99.7
"2016-04-29 00:37:30",1588326,3.872,138.5,6.957,1.357,5.471,100.1441,-0.332,0.961,90.4,0,109.7,13.36,0.42,100.5
"2016-04-29 00:38:00",1588327,3.87,140.2,6.392,1.376,5.165,100.1444,-0.332,0.89,90.3,0,109.7,13.36,0.42,102.2
"2016-04-29 00:38:30",1588328,3.468,136.6,6.49,1.313,4.938,100.152,-0.312,0.927,90.4,0,109.7,13.36,0.44,98.6
"2016-04-29 00:39:00",1588329,3.932,139.2,6.965,1.351,5.797,100.1543,-0.306,0.943,90.4,0,109.7,13.36,0.44,101.2
"2016-04-29 00:39:30",1588330,3.407,135.7,6.629,1.323,5.219,100.1537,-0.308,0.956,90.4,0,109.7,13.36,0.44,97.7
"2016-04-29 00:40:00",1588331,3.759,136.5,7.264,1.357,5.188,100.154,-0.307,0.92,90.4,0,109.7,13.36,0.44,98.5
"2016-04-29 00:40:30",1588332,3.282,132.8,6.008,1.207,4.184,100.1554,-0.303,0.918,90.5,0,109.7,13.36,0.45,94.8
"2016-04-29 00:41:00",1588333,4.337,138.4,7.265,1.339,5.678,100.1543,-0.306,0.962,90.5,0,109.7,13.36,0.44,100.4
"2016-04-29 00:41:30",1588334,3.726,136.4,7.919,1.405,5.063,100.1545,-0.306,0.872,90.4,0,109.7,13.36,0.45,98.4
"2016-04-29 00:42:00",1588335,3.658,134.8,6.951,1.365,5.367,100.1568,-0.3,1.001,90.6,0,109.7,13.36,0.45,96.8
"2016-04-29 00:42:30",1588336,3.144,129.2,6.335,1.289,4.671,100.1574,-0.298,0.959,90.6,0,109.7,13.36,0.45,91.2
"2016-04-29 00:43:00",1588337,3.401,128.1,7.201,1.353,4.822,100.1585,-0.295,0.889,90.5,0,109.7,13.36,0.46,90.1
"2016-04-29 00:43:30",1588338,3.138,114.1,12.24,1.346,4.657,100.158,-0.297,0.962,90.6,0,109.6,13.36,0.45,76.1
"2016-04-29 00:44:00",1588339,2.545,122.9,8.52,1.52,4.828,100.1633,-0.283,0.92,90.6,0,109.6,13.36,0.47,84.9
"2016-04-29 00:44:30",1588340,2.664,125.6,11.66,1.4,5.191,100.1667,-0.275,0.869,90.6,0,109.7,13.36,0.48,87.6
"2016-04-29 00:45:00",1588341,1.267,105.5,5.807,0.599,3.609,100.1665,-0.275,0.903,90.6,0,109.7,13.36,0.48,67.5
"2016-04-29 00:45:30",1588342,3.066,115.5,10.83,1.427,5.419,100.167,-0.274,0.957,90.7,0,109.7,13.36,0.48,77.5
"2016-04-29 00:46:00",1588343,2.938,113.4,8.48,1.268,4.446,100.1665,-0.275,0.918,90.7,0,109.7,13.36,0.48,75.4
"2016-04-29 00:46:30",1588344,2.789,127.8,9.25,1.313,4.152,100.1665,-0.275,0.958,90.7,0,109.7,13.36,0.48,89.8
"2016-04-29 00:47:00",1588345,3.199,126.6,7.935,1.385,5.032,100.1653,-0.278,0.964,90.8,0,109.7,13.36,0.47,88.6
"2016-04-29 00:47:30",1588346,3.392,134.5,6.326,1.311,5.17,100.1628,-0.285,0.934,90.7,0,109.7,13.36,0.47,96.5
"2016-04-29 00:48:00",1588347,3.058,120.9,8.34,1.351,5.536,100.1648,-0.28,0.985,90.8,0,109.7,13.36,0.47,82.9
"2016-04-29 00:48:30",1588348,3.15,120.1,7.08,1.511,4.965,100.1645,-0.28,0.902,90.7,0,109.7,13.35,0.47,82.1
"2016-04-29 00:49:00",1588349,2.764,121.3,6.849,1.403,5.379,100.1642,-0.281,0.97,90.8,0,109.7,13.36,0.47,83.3
"2016-04-29 00:49:30",1588350,2.803,116.4,6.511,1.387,4.864,100.1614,-0.288,0.982,90.9,0,109.7,13.36,0.46,78.4
"2016-04-29 00:50:00",1588351,2.599,119.2,9.18,1.364,4.282,100.1631,-0.284,0.881,90.8,0,109.7,13.36,0.47,81.2
"2016-04-29 00:50:30",1588352,2.952,137.5,6.666,1.341,5.585,100.1639,-0.282,0.984,90.9,0,109.7,13.36,0.47,99.5
"2016-04-29 00:51:00",1588353,2.468,134.4,5.849,1.224,4.378,100.165,-0.279,0.901,90.9,0,109.7,13.36,0.47,96.4
"2016-04-29 00:51:30",1588354,2.837,134.6,6.752,1.413,5.157,100.1633,-0.283,0.988,90.9,0,109.7,13.36,0.47,96.6
"2016-04-29 00:52:00",1588355,2.637,131.1,5.98,1.291,4.27,100.1633,-0.283,0.915,90.9,0,109.7,13.36,0.47,93.1
"2016-04-29 00:52:30",1588356,2.409,127.6,6.518,1.21,3.896,100.1633,-0.283,0.939,91,0,109.7,13.36,0.47,89.6
"2016-04-29 00:53:00",1588357,2.552,125.5,6.354,1.247,4.005,100.1642,-0.281,0.886,90.9,0,109.7,13.36,0.47,87.5
"2016-04-29 00:53:30",1588358,3.327,130.2,7.004,1.359,6.018,100.1633,-0.283,0.943,91,0,109.7,13.36,0.47,92.2
"2016-04-29 00:54:00",1588359,2.438,131.9,7.429,1.178,4.328,100.1636,-0.282,0.905,91,0,109.7,13.36,0.47,93.9
"2016-04-29 00:54:30",1588360,3.252,138.9,6.798,1.379,5.711,100.1625,-0.285,0.969,91.1,0,109.7,13.37,0.47,100.9
"2016-04-29 00:55:00",1588361,3.063,136.1,6.728,1.311,5.098,100.1631,-0.284,0.982,91.1,0,109.7,13.37,0.47,98.1
"2016-04-29 00:55:30",1588362,2.555,132.2,6.156,1.205,4.215,100.1631,-0.284,0.927,91,0,109.7,13.37,0.47,94.2
"2016-04-29 00:56:00",1588363,3.161,133.7,6.753,1.362,4.922,100.1608,-0.29,0.852,91,0,109.7,13.36,0.46,95.7
"2016-04-29 00:56:30",1588364,3.297,132.7,7.13,1.387,5.617,100.1602,-0.291,0.95,91.1,0,109.7,13.37,0.46,94.7
"2016-04-29 00:57:00",1588365,3.094,129.1,6.812,1.367,4.948,100.1582,-0.296,0.886,91,0,109.7,13.36,0.45,91.1
"2016-04-29 00:57:30",1588366,3.153,129.2,6.464,1.351,5.258,100.1571,-0.299,1.002,91.1,0,109.7,13.37,0.45,91.2
"2016-04-29 00:58:00",1588367,2.862,124.5,6.476,1.229,4.109,100.1574,-0.298,0.891,91,0,109.7,13.37,0.45,86.5
"2016-04-29 00:58:30",1588368,3.078,125.9,7.24,1.329,4.685,100.1565,-0.3,0.979,91.1,0,109.7,13.36,0.45,87.9
"2016-04-29 00:59:00",1588369,2.432,119.3,6.221,1.05,3.944,100.1523,-0.311,0.931,91.1,0,109.7,13.36,0.44,81.3
"2016-04-29 00:59:30",1588370,2.968,120.4,6.823,1.377,5.132,100.1534,-0.308,0.918,91.1,0,109.7,13.36,0.44,82.4
"2016-04-29 01:00:00",1588371,2.888,118,7.003,1.355,5.544,100.1512,-0.314,0.933,91.1,0,109.7,13.36,0.44,80.0
"2016-04-29 01:00:30",1588372,2.869,119.2,7.177,1.299,4.753,100.1515,-0.313,0.869,91.1,0,109.7,13.37,0.44,81.2
"2016-04-29 01:01:00",1588373,3.295,120.3,6.633,1.355,5.125,100.1498,-0.318,0.913,91.2,0,109.7,13.37,0.43,82.3
"2016-04-29 01:01:30",1588374,3.277,122.5,6.949,1.356,5.437,100.1512,-0.314,0.954,91.2,0,109.7,13.37,0.44,84.5
"2016-04-29 01:02:00",1588375,3.103,122.6,7.497,1.354,5.25,100.1492,-0.319,0.984,91.2,0,109.7,13.37,0.43,84.6
"2016-04-29 01:02:30",1588376,2.606,120.7,6.077,1.232,4.356,100.1492,-0.319,0.917,91.2,0,109.7,13.37,0.43,82.7
"2016-04-29 01:03:00",1588377,2.991,122.4,6.984,1.362,5.303,100.15,-0.317,0.975,91.2,0,109.7,13.37,0.43,84.4
"2016-04-29 01:03:30",1588378,2.903,117,7.066,1.328,4.576,100.1489,-0.32,0.865,91.2,0,109.7,13.37,0.43,79.0
"2016-04-29 01:04:00",1588379,3.255,114.1,7.053,1.355,5.358,100.1515,-0.313,0.941,91.3,0,109.7,13.37,0.44,76.1
"2016-04-29 01:04:30",1588380,2.54,107.9,5.681,1.135,3.973,100.1498,-0.318,0.894,91.2,0,109.7,13.37,0.43,69.9
"2016-04-29 01:05:00",1588381,3.719,111.8,7.039,1.283,6.048,100.1498,-0.318,0.918,91.2,0,109.7,13.36,0.43,73.8
"2016-04-29 01:05:30",1588382,2.523,104.9,6.375,1.178,4.462,100.1512,-0.314,0.918,91.3,0,109.7,13.37,0.44,66.9
"2016-04-29 01:06:00",1588383,2.845,104.1,7.298,1.355,5.236,100.1489,-0.32,0.903,91.3,0,109.7,13.37,0.43,66.1
"2016-04-29 01:06:30",1588384,2.808,103.5,6.94,1.327,4.925,100.1483,-0.321,0.857,91.2,0,109.7,13.37,0.43,65.5
"2016-04-29 01:07:00",1588385,3.538,103.8,7.103,1.37,6.336,100.15,-0.317,0.978,91.4,0,109.7,13.37,0.43,65.8
"2016-04-29 01:07:30",1588386,2.818,99.4,6.147,1.308,4.874,100.1515,-0.313,0.917,91.3,0,109.7,13.37,0.44,61.4
"2016-04-29 01:08:00",1588387,2.456,98.5,5.859,1.205,4.247,100.1506,-0.316,0.869,91.3,0,109.7,13.37,0.44,60.5
"2016-04-29 01:08:30",1588388,3.264,102,7.107,1.382,6.174,100.1515,-0.313,0.915,91.3,0,109.7,13.37,0.44,64.0
"2016-04-29 01:09:00",1588389,2.403,99.1,6.114,1.155,4.925,100.1517,-0.313,0.85,91.3,0,109.7,13.37,0.44,61.1
"2016-04-29 01:09:30",1588390,3.156,105.5,6.789,1.377,5.505,100.1526,-0.311,0.958,91.4,0,109.7,13.37,0.44,67.5
"2016-04-29 01:10:00",1588391,2.996,102.5,6.957,1.326,4.505,100.1523,-0.311,0.84,91.3,0,109.7,13.37,0.44,64.5
"2016-04-29 01:10:30",1588392,3.022,107.7,6.849,1.373,5.361,100.1523,-0.311,0.939,91.4,0,109.7,13.37,0.44,69.7
"2016-04-29 01:11:00",1588393,2.908,103.7,5.802,1.377,5.351,100.1529,-0.31,0.926,91.4,0,109.7,13.37,0.44,65.7
"2016-04-29 01:11:30",1588394,2.939,98.6,7.606,1.298,5.194,100.1526,-0.311,0.873,91.4,0,109.7,13.37,0.44,60.6
"2016-04-29 01:12:00",1588395,2.92,94.3,7.181,1.182,5.308,100.1526,-0.311,0.907,91.4,0,109.7,13.37,0.44,56.3
"2016-04-29 01:12:30",1588396,3.529,94.8,6.515,1.383,6.121,100.1529,-0.31,0.936,91.5,0,109.7,13.37,0.44,56.8
"2016-04-29 01:13:00",1588397,3.188,94.4,8.17,1.325,5.633,100.1529,-0.31,0.981,91.5,0,109.7,13.37,0.44,56.4
"2016-04-29 01:13:30",1588398,2.975,94.4,6.817,1.302,4.504,100.1526,-0.311,0.839,91.4,0,109.7,13.37,0.44,56.4
"2016-04-29 01:14:00",1588399,2.922,97.7,6.274,1.286,4.429,100.1529,-0.31,0.862,91.4,0,109.7,13.37,0.44,59.7
"2016-04-29 01:14:30",1588400,2.988,102.8,6.814,1.328,5.152,100.1529,-0.31,0.966,91.5,0,109.7,13.37,0.44,64.8
"2016-04-29 01:15:00",1588401,3.404,103.5,7.125,1.339,6.157,100.1526,-0.311,0.897,91.5,0,109.7,13.37,0.44,65.5
"2016-04-29 01:15:30",1588402,3.025,102,7.041,1.339,5.92,100.1529,-0.31,0.933,91.5,0,109.7,13.37,0.44,64.0
"2016-04-29 01:16:00",1588403,2.877,101.8,6.308,1.264,4.621,100.1529,-0.31,0.846,91.5,0,109.7,13.37,0.44,63.8
"2016-04-29 01:16:30",1588404,3.263,106.7,7.165,1.379,5.669,100.1526,-0.311,0.931,91.5,0,109.7,13.37,0.44,68.7
"2016-04-29 01:17:00",1588405,2.308,104.3,5.648,0.975,3.786,100.1529,-0.31,0.842,91.5,0,109.7,13.37,0.44,66.3
"2016-04-29 01:17:30",1588406,2.638,107.4,6.876,1.269,4.678,100.1529,-0.31,0.918,91.6,0,109.7,13.36,0.44,69.4
"2016-04-29 01:18:00",1588407,3.359,110.9,6.72,1.361,5.579,100.1529,-0.31,0.876,91.5,0,109.7,13.37,0.44,72.9
"2016-04-29 01:18:30",1588408,3.511,114.3,6.77,1.386,6.437,100.1529,-0.31,0.925,91.5,0,109.7,13.36,0.44,76.3
"2016-04-29 01:19:00",1588409,3.059,109.6,6.539,1.346,4.801,100.1529,-0.31,0.892,91.6,0,109.7,13.36,0.44,71.6
"2016-04-29 01:19:30",1588410,3.003,109.5,6.731,1.264,4.305,100.1529,-0.31,0.911,91.6,0,109.7,13.36,0.44,71.5
"2016-04-29 01:20:00",1588411,3.35,111.6,6.662,1.355,4.929,100.1529,-0.31,0.903,91.6,0,109.6,13.36,0.44,73.6
"2016-04-29 01:20:30",1588412,3.498,114.5,7.716,1.404,5.183,100.1529,-0.31,0.864,91.5,0,109.7,13.36,0.44,76.5
"2016-04-29 01:21:00",1588413,3.233,114.4,7.252,1.351,5.016,100.1529,-0.31,0.918,91.6,0,109.7,13.36,0.44,76.4
"2016-04-29 01:21:30",1588414,3.159,115.8,7.69,1.344,5.063,100.1529,-0.31,0.85,91.6,0,109.7,13.36,0.44,77.8
"2016-04-29 01:22:00",1588415,2.672,118.3,6.573,1.211,4.803,100.1529,-0.31,0.994,91.7,0,109.7,13.36,0.44,80.3
"2016-04-29 01:22:30",1588416,3.216,123.2,7.303,1.31,5.097,100.1526,-0.311,0.883,91.6,0,109.6,13.36,0.44,85.2
"2016-04-29 01:23:00",1588417,2.903,125.4,7.31,1.329,4.583,100.1532,-0.309,0.919,91.7,0,109.7,13.36,0.44,87.4
"2016-04-29 01:23:30",1588418,3.108,128.3,7.014,1.36,4.828,100.1526,-0.311,0.86,91.6,0,109.7,13.36,0.44,90.3
"2016-04-29 01:24:00",1588419,2.887,128.3,7.258,1.319,5.262,100.1517,-0.313,0.888,91.7,0,109.6,13.36,0.44,90.3
"2016-04-29 01:24:30",1588420,2.883,131.2,6.461,1.311,4.777,100.1486,-0.321,0.834,91.6,0,109.7,13.36,0.43,93.2
"2016-04-29 01:25:00",1588421,3.365,134.4,7.244,1.33,5.761,100.1449,-0.33,0.901,91.7,0,109.7,13.37,0.42,96.4
"2016-04-29 01:25:30",1588422,2.915,130.9,6.68,1.335,4.846,100.143,-0.335,0.926,91.7,0,109.7,13.37,0.42,92.9
"2016-04-29 01:26:00",1588423,2.923,129.4,6.426,1.323,4.491,100.141,-0.34,0.83,91.6,0,109.7,13.37,0.41,91.4
"2016-04-29 01:26:30",1588424,2.892,126.8,6.718,1.25,4.664,100.141,-0.34,0.917,91.7,0,109.7,13.37,0.41,88.8
"2016-04-29 01:27:00",1588425,3.282,126.2,6.766,1.279,5.039,100.1401,-0.342,0.941,91.8,0,109.7,13.37,0.41,88.2
"2016-04-29 01:27:30",1588426,3.961,125.7,7.455,1.366,5.492,100.1396,-0.344,0.854,91.7,0,109.7,13.37,0.41,87.7
"2016-04-29 01:28:00",1588427,3.69,127.5,7.061,1.361,5.087,100.1387,-0.346,0.882,91.8,0,109.7,13.37,0.40,89.5
"2016-04-29 01:28:30",1588428,3.54,126.8,7.261,1.241,4.488,100.137,-0.35,0.922,91.8,0,109.7,13.37,0.40,88.8
"2016-04-29 01:29:00",1588429,3.966,130.7,6.741,1.37,5.335,100.1367,-0.351,0.896,91.8,0,109.7,13.37,0.40,92.7
"2016-04-29 01:29:30",1588430,3.903,132.2,7.233,1.382,6.269,100.1373,-0.35,0.907,91.8,0,109.7,13.37,0.40,94.2
"2016-04-29 01:30:00",1588431,3.528,133.1,7.203,1.328,5.543,100.1367,-0.351,0.917,91.8,0,109.7,13.37,0.40,95.1
"2016-04-29 01:30:30",1588432,3.218,131.3,6.023,1.297,4.617,100.137,-0.35,0.82,91.7,0,109.7,13.37,0.40,93.3
"2016-04-29 01:31:00",1588433,3.463,134.6,7.505,1.374,5.252,100.1365,-0.352,0.939,91.8,0,109.7,13.37,0.40,96.6
"2016-04-29 01:31:30",1588434,3.157,133.8,6.567,1.347,5.041,100.137,-0.35,0.846,91.8,0,109.7,13.37,0.40,95.8
"2016-04-29 01:32:00",1588435,3.128,134.3,7.197,1.31,5.884,100.1373,-0.35,0.899,91.8,0,109.8,13.37,0.40,96.3
"2016-04-29 01:32:30",1588436,2.721,132.1,7.135,1.276,5.284,100.1373,-0.35,0.94,91.9,0,109.6,13.37,0.40,94.1
"2016-04-29 01:33:00",1588437,2.62,128.4,7.103,1.279,4.707,100.1362,-0.352,0.82,91.8,0,109.6,13.37,0.40,90.4
"2016-04-29 01:33:30",1588438,2.44,125.2,6.839,1.128,4.347,100.1379,-0.348,0.854,91.9,0,109.7,13.37,0.40,87.2
"2016-04-29 01:34:00",1588439,2.533,122.2,6.058,1.147,4.19,100.1376,-0.349,0.829,91.8,0,109.7,13.37,0.40,84.2
"2016-04-29 01:34:30",1588440,2.667,122.6,7.206,1.323,5.222,100.1379,-0.348,0.919,91.9,0,109.7,13.37,0.40,84.6
"2016-04-29 01:35:00",1588441,2.558,121.3,7.069,1.336,5.173,100.1407,-0.341,0.906,91.9,0,109.7,13.37,0.41,83.3
"2016-04-29 01:35:30",1588442,2.938,122.5,7.16,1.346,5.744,100.1396,-0.344,0.886,91.9,0,109.7,13.37,0.41,84.5
"2016-04-29 01:36:00",1588443,2.209,118.7,5.851,1.162,4.419,100.1447,-0.331,0.828,91.9,0,109.7,13.36,0.42,80.7
"2016-04-29 01:36:30",1588444,2.56,118.7,6.668,1.303,5.059,100.1478,-0.323,0.919,92,0,109.7,13.36,0.43,80.7
"2016-04-29 01:37:00",1588445,2.193,115,6.037,1.196,4.079,100.1486,-0.321,0.859,91.9,0,109.7,13.36,0.43,77.0
"2016-04-29 01:37:30",1588446,3.061,117.4,6.666,1.351,5.527,100.1523,-0.311,0.877,91.9,0,109.7,13.36,0.44,79.4
"2016-04-29 01:38:00",1588447,2.129,115.1,6.459,1.238,4.579,100.156,-0.302,0.882,92,0,109.7,13.36,0.45,77.1
"2016-04-29 01:38:30",1588448,2.601,120,7.641,1.364,5.895,100.1554,-0.303,0.874,91.9,0,109.7,13.36,0.45,82.0
"2016-04-29 01:39:00",1588449,1.309,113.3,2.79,0.686,3.475,100.156,-0.302,0.779,91.8,0,109.7,13.36,0.45,75.3
"2016-04-29 01:39:30",1588450,2.299,118.7,6.771,1.34,5.208,100.1557,-0.303,0.933,92,0,109.7,13.36,0.45,80.7
"2016-04-29 01:40:00",1588451,1.83,114.1,5.856,1.167,3.927,100.156,-0.302,0.759,91.9,0,109.7,13.36,0.45,76.1
"2016-04-29 01:40:30",1588452,2.493,119.8,6.669,1.364,5.104,100.1557,-0.303,0.928,92,0,109.7,13.36,0.45,81.8
"2016-04-29 01:41:00",1588453,2.095,113.4,6.803,1.226,4.376,100.158,-0.297,0.863,92,0,109.7,13.37,0.45,75.4
"2016-04-29 01:41:30",1588454,2.759,117.2,7.55,1.371,5.838,100.1551,-0.304,0.943,92,0,109.7,13.37,0.45,79.2
"2016-04-29 01:42:00",1588455,2.132,115.1,5.699,1.298,4.6,100.156,-0.302,0.848,92,0,109.7,13.37,0.45,77.1
"2016-04-29 01:42:30",1588456,1.811,112.5,6.955,1.177,4.898,100.1551,-0.304,0.902,92,0,109.7,13.37,0.45,74.5
"2016-04-29 01:43:00",1588457,2.652,112.3,7.196,1.364,5.578,100.154,-0.307,0.897,92,0,109.6,13.37,0.44,74.3
"2016-04-29 01:43:30",1588458,1.961,105.1,6.58,1.205,4.678,100.1551,-0.304,0.911,92,0,109.7,13.38,0.45,67.1
"2016-04-29 01:44:00",1588459,2.524,107.4,7.032,1.359,5.525,100.1563,-0.301,0.934,92,0,109.7,13.38,0.45,69.4
"2016-04-29 01:44:30",1588460,1.998,104.2,6.235,1.221,4.495,100.1563,-0.301,0.874,92,0,109.7,13.38,0.45,66.2
"2016-04-29 01:45:00",1588461,2.173,107.2,7.539,1.336,5.371,100.1566,-0.3,0.977,92.1,0,109.7,13.37,0.45,69.2
"2016-04-29 01:45:30",1588462,1.739,105,5.39,1.027,4.335,100.1574,-0.298,0.815,91.9,0,109.7,13.38,0.45,67.0
"2016-04-29 01:46:00",1588463,2.813,111.8,6.804,1.34,5.882,100.1583,-0.296,0.914,92,0,109.7,13.37,0.45,73.8
"2016-04-29 01:46:30",1588464,2.054,108.2,6.191,1.184,4.678,100.1614,-0.288,0.999,92.1,0,109.7,13.38,0.46,70.2
"2016-04-29 01:47:00",1588465,2.659,110.7,7.187,1.36,5.07,100.1636,-0.282,0.914,92,0,109.7,13.37,0.47,72.7
"2016-04-29 01:47:30",1588466,2.297,108.5,6.112,1.271,4.614,100.1699,-0.266,0.917,92.1,0,109.6,13.38,0.48,70.5
"2016-04-29 01:48:00",1588467,2.935,111.8,6.978,1.373,6.002,100.1699,-0.266,0.953,92.1,0,109.7,13.38,0.48,73.8
"2016-04-29 01:48:30",1588468,1.976,104.2,5.363,0.945,4.33,100.1716,-0.262,0.896,92,0,109.7,13.38,0.49,66.2